Preview of NWS' New Version of Forecast
This preview is not operational and should not be used for support decisions.

Regional Weather Roundup (RWR)

Issued by National Weather Service (NWS)

                            
000
ASPQ40 PGUM 210610
RWRPQ 
WEATHER ROUNDUP FOR THE MARIANAS AND MICRONESIA
NATIONAL WEATHER SERVICE TIYAN GU
400 PM CHST WED AUG 21 2019

GUZ001>004-210700-
MARIANA ISLANDS-
  
CITY           SKY/WX    TMP DP  RH WIND       PRES   REMARKS
GUAM AIRPORT   CLOUDY    88  73  62 N7        29.80S HX  96           
ANDERSEN AFB   PTSUNNY   84  75  74 NE8       29.81S HX  92           
ROTA AIRPORT   MOSUNNY   84  75  74 N9        29.77F HX  92           
TINIAN AP      MOSUNNY   86  75  70 E12       29.78F HX  95           
SAIPAN AP      SUNNY     90  75  62 NE9       29.80S HX 100           

$$

PMZ161-210700-
REPUBLIC OF PALAU-
  
CITY           SKY/WX    TMP DP  RH WIND       PRES   REMARKS
KOROR AP       PTSUNNY   82  75  78 SW10G20   29.76R                  
KOROR WSO      NOT AVBL                                               

$$

PMZ171>174-210700-
FEDERATED STATES OF MICRONESIA-
  
CITY           SKY/WX    TMP DP  RH WIND       PRES   REMARKS
YAP AIRPORT    CLOUDY    81  77  89 CALM      29.77S                  
CHUUK AP       CLOUDY    86  81  84 VRB6      29.70S HX 102           
POHNPEI AP     NOT AVBL                                               
POHNPEI WSO    MOSUNNY   88  77  70 E5        29.71F HX 100           
KOSRAE AP      NOT AVBL                                               

$$

PMZ181-210700-
REPUBLIC OF THE MARSHALL ISLANDS-
  
CITY           SKY/WX    TMP DP  RH WIND       PRES   REMARKS
KWAJALEIN AP   MOSUNNY   84  77  79 SE5       29.77R HX  94           
MAJURO AP      PTSUNNY   84  77  79 E6        29.77R HX  94           
MAJURO WSO     PTSUNNY   82  77  83 VRB3      29.76R HX  91           

$$